Location: Middlebury
(44.0153°N, 73.1678°W)
Time: 14:24:42
(UTC-05:00)

ISS - Visible Passes

Search period start: 23 January 2018 00:00
Search period end: 02 February 2018 00:00
Orbit: 402 x 407 km, 51.6° (Epoch: 23 January)

Date Brightness Start Highest point End Pass type
(mag) Time Alt. Az. Time Alt. Az. Time Alt. Az.
23 Jan -1.2 18:31:06 10° SSE 18:31:11 10° SSE 18:31:11 10° SSE visible
24 Jan -1.3 19:13:14 10° SW 19:14:09 17° SW 19:14:09 17° SW visible
25 Jan -2.7 18:21:21 10° SSW 18:24:12 28° SE 18:24:20 28° SE visible
26 Jan -1.8 17:29:58 10° S 17:32:03 16° SE 17:34:07 10° E visible
26 Jan -2.5 19:04:55 10° WSW 19:07:07 39° WSW 19:07:07 39° WSW visible
27 Jan -3.8 18:12:36 10° SW 18:15:50 65° SE 18:17:07 32° ENE visible
27 Jan -0.3 19:49:35 10° W 19:49:47 11° WNW 19:49:47 11° WNW visible
28 Jan -2.7 18:56:54 10° W 18:59:43 38° NW 18:59:43 38° NW visible
29 Jan -3.5 18:04:18 10° WSW 18:07:32 60° NNW 18:09:35 20° NE visible
29 Jan -0.6 19:41:48 10° WNW 19:42:14 12° WNW 19:42:14 12° WNW visible
30 Jan -2.3 18:49:02 10° WNW 18:51:52 26° NNW 18:52:02 26° N visible
31 Jan -2.7 17:56:16 10° W 17:59:18 35° NNW 18:01:48 14° NE visible
31 Jan -0.8 19:33:51 10° NW 19:34:27 13° NW 19:34:27 13° NW visible
01 Feb -2.1 18:41:09 10° WNW 18:43:46 22° N 18:44:11 21° N visible
